FW1784 Weather Reports


Display with metric or nautical units.
time (UTC)temp
F
wind
direction
speed
MPH
gust
MPH
rain 1hr
in
rain 24hr
in
rain mn
in
humidity
%
barometer
mb
20260901214502 71 18 0.0 3.0 0.01 0.30 0.28 96 1014.3
20260901213104 71 36 0.0 3.0 0.02 0.30 0.28 96 1014.2
20260901211522 72 13 2.0 7.0 0.02 0.30 0.28 95 1014.1
20260901210131 72 20 1.0 6.0 0.02 0.30 0.28 94 1014.0
20260901204601 74 32 0.0 8.0 0.01 0.28 0.27 93 1013.7
20260901203003 75 32 2.0 7.0 0.00 0.28 0.26 92 1013.5
20260901201604 76 31 2.0 5.0 0.00 0.28 0.26 91 1013.5
20260901194606 77 42 0.0 6.0 0.00 0.28 0.26 90 1013.5
20260901193005 77 78 2.0 8.0 0.00 0.28 0.26 89 1013.3
20260901191615 77 51 0.0 2.0 0.00 0.28 0.26 90 1013.3
20260901190006 78 76 0.0 1.0 0.00 0.28 0.26 87 1013.1
20260901184505 79 76 1.0 4.0 0.00 0.28 0.26 84 1013.2
20260901183003 80 244 1.0 4.0 0.00 0.28 0.26 82 1013.0
20260901181504 79 194 0.0 2.0 0.00 0.28 0.26 86 1013.0
20260901174603 78 149 0.0 3.0 0.00 0.28 0.26 87 1013.1
20260901173106 77 161 0.0 6.0 0.00 0.28 0.26 91 1013.1
20260901171507 76 142 0.0 5.0 0.00 0.28 0.26 94 1013.2
20260901170107 75 238 0.0 1.0 0.00 0.28 0.26 96 1013.2
20260901164618 74 290 0.0 3.0 0.00 0.28 0.26 98 1013.4
20260901163035 73 151 0.0 4.0 0.00 0.28 0.26 98 1013.7
20260901161605 73 195 0.0 0.0 0.00 0.28 0.26 99 1013.9
20260901160007 72 177 0.0 2.0 0.00 0.28 0.26 99 1014.0
20260901154502 71 240 0.0 0.0 0.00 0.28 0.26 99 1014.4
20260901153103 70 236 0.0 0.0 0.00 0.28 0.26 99 1014.6
20260901151504 70 236 0.0 0.0 0.00 0.28 0.26 99 1014.9
20260901150104 70 236 0.0 0.0 0.00 0.28 0.26 99 1015.0
20260901144602 70 236 0.0 0.0 0.01 0.28 0.26 99 1014.7
20260901143003 69 236 0.0 0.0 0.02 0.28 0.26 99 1014.5
20260901141602 69 236 0.0 0.0 0.02 0.28 0.26 99 1014.8
20260901140021 68 236 0.0 0.0 0.10 0.28 0.26 99 1014.7
20260901134501 67 236 0.0 0.0 0.10 0.27 0.25 99 1014.7
20260901133109 67 236 0.0 0.0 0.10 0.26 0.24 99 1014.9
20260901131502 67 236 0.0 0.0 0.12 0.26 0.24 99 1014.8
20260901124603 67 236 0.0 0.0 0.06 0.17 0.15 99 1015.1
20260901123103 67 236 0.0 1.0 0.06 0.16 0.14 99 1014.9
20260901121505 67 236 0.0 0.0 0.04 0.14 0.12 99 1015.0
20260901114603 67 236 0.0 0.0 0.01 0.11 0.09 99 1015.0
20260901113003 67 236 0.0 0.0 0.00 0.10 0.08 99 1014.8
20260901111610 67 236 0.0 0.0 0.00 0.10 0.08 99 1014.8
20260901110007 67 236 0.0 0.0 0.01 0.10 0.08 99 1015.0
20260901104505 67 236 0.0 1.0 0.01 0.10 0.08 99 1014.9
20260901103102 67 236 0.0 0.0 0.01 0.10 0.08 99 1014.8
20260901101603 67 236 0.0 0.0 0.01 0.10 0.08 99 1014.9
20260901094603 67 234 0.0 1.0 0.00 0.09 0.07 99 1015.0
20260901093002 67 234 0.0 0.0 0.00 0.09 0.07 99 1014.9
20260901091607 67 234 0.0 1.0 0.00 0.09 0.07 99 1014.9
20260901090111 66 234 0.0 0.0 0.00 0.09 0.07 99 1015.0
20260901084506 67 234 0.0 0.0 0.00 0.09 0.07 98 1015.0
20260901083105 67 234 0.0 0.0 0.00 0.09 0.07 98 1015.3
20260901081603 67 234 0.0 0.0 0.00 0.09 0.07 98 1015.2
20260901080007 67 234 0.0 0.0 0.00 0.09 0.07 98 1015.1
20260901074505 67 234 0.0 0.0 0.01 0.09 0.07 98 1015.5
20260901073007 67 234 0.0 0.0 0.01 0.09 0.07 98 1015.6
20260901071606 67 234 0.0 0.0 0.01 0.09 0.07 98 1015.7
20260901070005 67 234 0.0 0.0 0.01 0.09 0.07 98 1015.7
20260901064503 67 234 0.0 0.0 0.00 0.08 0.06 98 1015.8
20260901063139 67 234 0.0 0.0 0.00 0.08 0.06 98 1015.9
20260901061502 67 234 0.0 0.0 0.00 0.08 0.06 98 1016.1
20260901054602 67 234 0.0 0.0 0.01 0.08 0.06 98 1016.4
20260901053002 67 234 0.0 0.0 0.03 0.08 0.06 98 1016.4
20260901051535 67 234 0.0 0.0 0.04 0.08 0.06 98 1016.6
20260901050003 67 234 0.0 0.0 0.05 0.08 0.06 98 1016.6
20260901044506 67 234 0.0 0.0 0.05 0.07 0.05 98 1016.7
20260901043103 67 234 0.0 0.0 0.03 0.05 0.03 98 1016.7
20260901041502 67 234 0.0 0.0 0.03 0.04 0.02 98 1016.6
20260901040104 67 234 0.0 0.0 0.02 0.03 0.01 98 1016.8
20260901034604 67 234 0.0 0.0 0.01 0.02 0.02 98 1016.9
20260901033009 67 234 0.0 0.0 0.01 0.02 0.02 98 1017.0
20260901031502 67 234 0.0 0.0 0.00 0.01 0.01 98 1017.0
20260901030104 67 234 0.0 0.0 0.00 0.01 0.01 98 1017.0
20260901024604 67 234 0.0 0.0 0.00 0.01 0.01 98 1017.1
20260901023002 67 236 0.0 0.0 0.00 0.01 0.01 98 1017.2
20260901021603 67 236 0.0 0.0 0.00 0.01 0.01 97 1017.3
20260901020002 67 236 0.0 0.0 0.01 0.01 0.01 97 1017.3
20260901014502 67 233 0.0 0.0 0.01 0.01 0.01 97 1017.4
20260901013002 67 232 0.0 2.0 0.01 0.01 0.01 97 1017.4
20260901011602 67 304 0.0 2.0 0.01 0.01 0.01 97 1017.3
20260901010005 67 305 0.0 2.0 0.00 0.00 0.00 97 1017.4
20260901004502 67 309 0.0 0.0 0.00 0.00 0.00 96 1017.4
20260901003109 67 309 0.0 0.0 0.00 0.00 0.00 96 1017.4
20260901001503 67 309 0.0 0.0 0.00 0.00 0.00 96 1017.4
20260831234604 67 309 0.0 0.0 0.00 0.00 0.00 96 1017.5
20260831233003 68 355 0.0 2.0 0.00 0.00 0.00 95 1017.5
20260831231613 68 355 0.0 2.0 0.00 0.00 0.00 94 1017.5
20260831230002 68 355 0.0 0.0 0.00 0.00 0.00 94 1017.7
20260831224503 69 355 0.0 0.0 0.00 0.00 0.00 93 1017.8
20260831223109 69 355 0.0 0.0 0.00 0.00 0.00 93 1017.8
20260831221504 69 355 0.0 1.0 0.00 0.00 0.00 92 1017.9